CW5920 Weather Reports


time (UTC)temp
F
wind
direction
speed
knots
gust
knots
rain 1hr
in
rain 24hr
in
rain mn
in
humidity
%
barometer
mb
20260905203036 99 135 2.6 10.4 0.00 0.00 0.00 39 1011.7
20260905202016 99 90 2.6 7.0 0.00 0.00 0.00 39 1011.9
20260905201015 99 135 4.3 8.7 0.00 0.00 0.00 40 1011.9
20260905200016 99 151 3.5 0.0 0.00 0.00 0.00 41 1012.1
20260905195015 98 135 2.6 8.7 0.00 0.00 0.00 42 1012.3
20260905194016 97 0 0.9 3.5 0.00 0.00 0.00 43 1012.5
20260905193016 97 0 0.9 4.3 0.00 0.00 0.00 43 1012.6
20260905192016 98 113 3.5 7.8 0.00 0.00 0.00 42 1012.8
20260905191016 99 90 2.6 6.1 0.00 0.00 0.00 41 1013.0
20260905190015 98 135 5.2 11.3 0.00 0.00 0.00 42 1013.1
20260905185015 98 113 1.7 5.2 0.00 0.00 0.00 41 1013.3
20260905184016 99 158 0.9 6.1 0.00 0.00 0.00 41 1013.6
20260905183016 97 23 0.9 5.2 0.00 0.00 0.00 43 1013.6
20260905182036 98 113 2.6 7.0 0.00 0.00 0.00 41 1013.8
20260905181015 97 158 0.9 8.7 0.00 0.00 0.00 42 1013.9
20260905180015 97 90 2.6 7.0 0.00 0.00 0.00 42 1014.1
20260905175015 97 158 4.3 9.6 0.00 0.00 0.00 44 1014.4
20260905174015 97 68 3.5 7.0 0.00 0.00 0.00 43 1014.3
20260905173016 97 135 3.5 10.4 0.00 0.00 0.00 46 1014.5
20260905172015 96 158 2.6 9.6 0.00 0.00 0.00 47 1014.6
20260905171015 95 135 3.5 8.7 0.00 0.00 0.00 48 1014.6
20260905170056 95 113 2.6 8.7 0.00 0.00 0.00 48 1014.6
20260905165016 95 113 2.6 9.6 0.00 0.00 0.00 48 1014.8
20260905164015 94 135 2.6 7.8 0.00 0.00 0.00 49 1014.8
20260905163016 94 113 2.6 8.7 0.00 0.00 0.00 51 1014.9
20260905162015 94 113 5.2 8.7 0.00 0.00 0.00 50 1014.8
20260905161015 94 158 0.9 7.8 0.00 0.00 0.00 52 1014.8
20260905160016 93 0.0 0.9 0.00 0.00 0.00 53 1014.8
20260905155016 93 158 0.9 7.0 0.00 0.00 0.00 53 1014.9
20260905154035 92 0.0 0.0 0.00 0.00 0.00 57 1014.9
20260905153015 91 158 0.9 5.2 0.00 0.00 0.00 57 1014.9
20260905152015 90 158 0.9 4.3 0.00 0.00 0.00 59 1014.7
20260905151016 89 158 1.7 6.1 0.00 0.00 0.00 59 1014.7
20260905150055 88 158 0.9 4.3 0.00 0.00 0.00 64 1014.7
20260905145015 87 0.0 1.7 0.00 0.00 0.00 67 1014.7
20260905144016 87 0.0 1.7 0.00 0.00 0.00 68 1014.8
20260905143015 86 0.0 0.9 0.00 0.00 0.00 71 1014.8
20260905142016 85 0.0 0.9 0.00 0.00 0.00 72 1014.8
20260905141035 84 0.0 0.9 0.00 0.00 0.00 75 1014.6
20260905140015 83 0.0 0.9 0.00 0.00 0.00 76 1014.6
20260905135015 82 0.0 0.9 0.00 0.00 0.00 79 1014.6
20260905134015 81 0.0 4.3 0.00 0.00 0.00 81 1014.4
20260905133015 80 158 0.9 5.2 0.00 0.00 0.00 84 1014.3
20260905132015 79 0.0 3.5 0.00 0.00 0.00 86 1014.1
20260905131015 78 0.0 3.5 0.00 0.00 0.00 88 1014.0
20260905130015 77 158 0.9 5.2 0.00 0.00 0.00 89 1013.9
20260905125016 77 0.0 4.3 0.00 0.00 0.00 89 1013.8
20260905124015 76 0.0 1.7 0.00 0.00 0.00 89 1013.6
20260905123035 76 0.0 0.0 0.00 0.00 0.00 88 1013.7
20260905122016 76 0.0 0.9 0.00 0.00 0.00 88 1013.7
20260905121015 76 0.0 0.0 0.00 0.00 0.00 86 1013.7
20260905120055 77 0.0 0.0 0.00 0.00 0.00 86 1013.7
20260905115015 77 0.0 0.0 0.00 0.00 0.00 85 1013.7
20260905114015 77 0.0 0.0 0.00 0.00 0.00 85 1013.6
20260905113015 77 0.0 0.0 0.00 0.00 0.00 85 1013.7
20260905112015 78 0.0 0.0 0.00 0.00 0.00 84 1013.7
20260905111016 78 0.0 0.0 0.00 0.00 0.00 84 1013.8
20260905110015 78 0.0 0.0 0.00 0.00 0.00 84 1013.8
20260905105015 78 0.0 0.0 0.00 0.00 0.00 84 1013.7
20260905104016 78 0.0 0.9 0.00 0.00 0.00 84 1013.6
20260905103015 78 0.0 0.9 0.00 0.00 0.00 84 1013.6
20260905102015 79 0.0 0.0 0.00 0.00 0.00 83 1013.6
20260905101015 79 0.0 0.9 0.00 0.00 0.00 83 1013.4
20260905100035 79 158 1.7 8.7 0.00 0.00 0.00 83 1013.5
20260905095015 79 158 0.9 5.2 0.00 0.00 0.00 82 1013.4
20260905094035 79 0.0 2.6 0.00 0.00 0.00 82 1013.5
20260905093015 79 0.0 5.2 0.00 0.00 0.00 82 1013.6
20260905092015 80 158 1.7 5.2 0.00 0.00 0.00 82 1013.7
20260905091015 80 158 0.9 4.3 0.00 0.00 0.00 81 1013.6
20260905090055 80 0.0 2.6 0.00 0.00 0.00 81 1013.7
20260905085016 80 158 0.9 2.6 0.00 0.00 0.00 80 1013.5
20260905084016 80 0.0 2.6 0.00 0.00 0.00 80 1013.4
20260905083036 80 158 0.9 3.5 0.00 0.00 0.00 79 1013.3
20260905082016 81 158 0.9 5.2 0.00 0.00 0.00 79 1013.3
20260905081016 81 0.0 1.7 0.00 0.00 0.00 78 1013.3
20260905080016 81 0.0 0.9 0.00 0.00 0.00 77 1013.4
20260905075016 81 158 0.9 3.5 0.00 0.00 0.00 77 1013.4
20260905074016 82 0.0 5.2 0.00 0.00 0.00 77 1013.4
20260905073016 82 158 2.6 7.8 0.00 0.00 0.00 76 1013.4
20260905072016 82 135 1.7 7.8 0.00 0.00 0.00 76 1013.6
20260905071016 82 158 3.5 9.6 0.00 0.00 0.00 75 1013.6
20260905070036 82 158 3.5 8.7 0.00 0.00 0.00 75 1013.7
20260905065016 82 135 3.5 9.6 0.00 0.00 0.00 74 1013.7
20260905064016 83 158 2.6 9.6 0.00 0.00 0.00 74 1013.8
20260905063016 83 158 2.6 7.0 0.00 0.00 0.00 73 1013.8
20260905062016 83 135 3.5 8.7 0.00 0.00 0.00 73 1013.9
20260905061016 83 158 2.6 7.0 0.00 0.00 0.00 72 1013.9
20260905060016 83 135 3.5 7.8 0.00 0.00 0.00 72 1013.9
20260905055016 84 135 6.1 10.4 0.00 0.01 0.00 71 1013.7
20260905054016 84 135 2.6 9.6 0.00 0.01 0.00 71 1013.7
20260905053036 84 135 4.3 9.6 0.00 0.01 0.00 70 1013.7
20260905052016 84 158 4.3 9.6 0.00 0.01 0.00 70 1013.5
20260905051056 84 135 3.5 8.7 0.00 0.01 0.00 70 1013.5
20260905050016 85 135 5.2 12.2 0.00 0.01 0.00 69 1013.4
20260905045016 85 135 5.2 11.3 0.00 0.01 0.00 69 1013.5
20260905044016 85 135 4.3 8.7 0.00 0.01 0.00 68 1013.4
20260905043016 85 135 5.2 10.4 0.00 0.01 0.00 67 1013.3
20260905042016 86 135 3.5 7.8 0.00 0.01 0.00 66 1013.4
20260905041116 86 135 3.5 9.6 0.00 0.01 0.00 65 1013.5
20260905040016 86 135 5.2 9.6 0.00 0.01 0.00 64 1013.5
20260905035016 87 135 4.3 9.6 0.00 0.01 0.00 63 1013.6
20260905034036 87 135 5.2 12.2 0.00 0.01 0.00 62 1013.5
20260905033016 87 135 5.2 11.3 0.00 0.01 0.00 61 1013.3
20260905032016 87 135 4.3 8.7 0.00 0.01 0.00 60 1013.4
20260905031016 88 135 3.5 9.6 0.00 0.01 0.00 59 1013.3
20260905030016 88 135 4.3 8.7 0.00 0.01 0.00 58 1013.1
20260905025016 88 135 3.5 7.0 0.00 0.01 0.00 57 1013.0
20260905024016 88 113 2.6 6.1 0.00 0.01 0.00 57 1013.0
20260905023036 89 135 1.7 4.3 0.00 0.01 0.00 56 1012.8
20260905022016 89 135 2.6 6.1 0.00 0.01 0.00 55 1012.5
20260905021016 90 113 2.6 6.1 0.00 0.01 0.00 55 1012.4
20260905020016 90 113 2.6 6.1 0.00 0.01 0.00 54 1012.3
20260905015016 90 113 3.5 7.8 0.00 0.01 0.00 53 1012.0
20260905014016 91 113 2.6 6.1 0.00 0.01 0.00 53 1011.9
20260905013016 91 113 3.5 7.8 0.00 0.01 0.00 52 1011.7
20260905012016 91 113 4.3 7.8 0.00 0.01 0.00 52 1011.6
20260905011016 92 113 6.1 11.3 0.00 0.01 0.00 51 1011.6
20260905010016 92 113 6.1 10.4 0.00 0.01 0.00 50 1011.5
20260905005016 93 113 2.6 7.0 0.00 0.01 0.00 49 1011.5
20260905004016 93 113 6.1 9.6 0.00 0.01 0.00 48 1011.3
20260905003056 94 113 6.1 10.4 0.00 0.01 0.00 48 1011.2
20260905002016 94 113 7.0 11.3 0.00 0.01 0.00 47 1011.0
20260905001016 95 113 7.8 13.9 0.00 0.01 0.00 46 1011.0
20260905000016 96 135 4.3 8.7 0.00 0.01 0.00 45 1011.0
20260904235016 96 135 4.3 8.7 0.00 0.01 0.00 44 1010.9
20260904234016 96 135 4.3 9.6 0.00 0.01 0.00 44 1011.0
20260904233036 96 113 7.0 10.4 0.00 0.01 0.00 44 1011.0
20260904232016 97 135 2.6 8.7 0.00 0.01 0.00 45 1010.9
20260904231016 97 135 6.1 9.6 0.00 0.01 0.00 44 1011.0
20260904230016 97 113 6.1 10.4 0.00 0.01 0.00 44 1011.0
20260904225016 97 135 7.0 11.3 0.00 0.01 0.00 44 1011.1
20260904224016 97 90 2.6 7.8 0.00 0.01 0.00 45 1011.1
20260904223016 98 113 9.6 16.5 0.00 0.01 0.00 44 1011.3
20260904222016 98 135 3.5 9.6 0.00 0.01 0.00 42 1011.1
20260904221016 98 135 3.5 9.6 0.00 0.01 0.00 41 1011.2
20260904220016 98 113 6.1 10.4 0.00 0.01 0.00 41 1011.2
20260904215016 99 113 8.7 12.2 0.00 0.01 0.00 41 1011.4
20260904214016 99 113 3.5 9.6 0.00 0.01 0.00 41 1011.4
20260904213056 98 113 6.1 10.4 0.00 0.01 0.00 41 1011.5
20260904212016 98 90 7.8 13.0 0.00 0.01 0.00 42 1011.6
20260904211036 98 135 7.8 11.3 0.00 0.01 0.00 42 1011.8
20260904210016 99 158 3.5 13.0 0.00 0.01 0.00 42 1012.0
20260904205036 99 135 1.7 10.4 0.00 0.01 0.00 42 1012.1
20260904204016 99 90 0.9 1.7 0.00 0.01 0.00 43 1012.1
20260904203510 99 113 2.6 8.7 0.00 0.01 0.00 44 1012.3